Location: �clusier
(49.9361°N, 2.7869°E)
Time: 22:45:57
(UTC+00:00)

SL-16 R/B - Pass Details

Date: 16 June 2021
Orbit: 842 x 845 km, 71.0° (Epoch: 01 August)

Event Time Altitude Azimuth Distance (km) Brightness Sun altitude
Rises 21:40:54 0° 226° (SW) 3,391 5.2 -11.3°
Reaches altitude 10° 21:43:25 10° 232° (SW) 2,460 4.5 -11.5°
Maximum altitude 21:48:53 49° 306° (NW) 1,082 3.2 -11.9°
Drops below altitude 10° 21:54:23 10° 22° (NNE) 2,476 5.2 -12.3°
Sets 21:56:56 0° 28° (NNE) 3,415 5.9 -12.5°
